Printer-friendly version
Follow the MPC on Twitter Follow the MPC on Facebook The MPC blog
Minor Planet Center

MPEC 2006-V08 : 2006 VA

The following Minor Planet Electronic Circular may be linked-to from your own Web pages, but must not otherwise be redistributed electronically.

A form allowing access to any MPEC is at the bottom of this page.


Read MPEC 2006-V07 Read MPEC 2006-V09


M.P.E.C. 2006-V08                                Issued 2006 Nov. 1, 22:35 UT

     The Minor Planet Electronic Circulars contain information on unusual
         minor planets and routine data on comets.  They are published
   on behalf of Commission 20 of the International Astronomical Union by the
          Minor Planet Center, Smithsonian Astrophysical Observatory,
                          Cambridge, MA 02138, U.S.A.

             Prepared using the Tamkin Foundation Computer Network

                              MPC@CFA.HARVARD.EDU
          URL http://cfa-www.harvard.edu/iau/mpc.html  ISSN 1523-6714

                                    2006 VA

Observations:
     K06V00A* C2006 11 01.19457 02 28 56.38 +22 48 18.1          20.5 V EV008G96
     K06V00A  C2006 11 01.20289 02 28 55.74 +22 48 13.6          20.6 V EV008G96
     K06V00A  C2006 11 01.21140 02 28 55.02 +22 48 08.9          20.3 V EV008G96
     K06V00A  C2006 11 01.24955 02 28 51.96 +22 47 51.3          20.9 V EV008G96
     K06V00A  C2006 11 01.25308 02 28 51.63 +22 47 49.5          20.3 V EV008G96
     K06V00A  C2006 11 01.25661 02 28 51.31 +22 47 47.7          20.4 V EV008G96
     K06V00A  C2006 11 01.26014 02 28 51.06 +22 47 46.1          20.5 V EV008G96
     K06V00A  C2006 11 01.48410 02 28 32.98 +22 45 53.6          21.2 V EV008G96
     K06V00A  C2006 11 01.48556 02 28 32.91 +22 45 52.5          20.4 V EV008G96
     K06V00A  C2006 11 01.48703 02 28 32.77 +22 45 52.1          21.0 V EV008G96
     K06V00A  C2006 11 01.48848 02 28 32.62 +22 45 51.1          20.5 V EV008G96
     K06V00A  C2006 11 01.86710 02 28 04.10 +22 42 41.5                 EV008J95
     K06V00A  C2006 11 01.88464 02 28 02.78 +22 42 33.0                 EV008J95
     K06V00A  C2006 11 01.90234 02 28 01.33 +22 42 24.7          20.5 R EV008J95

Observer details:
G96 Mt. Lemmon Survey.  Observer R. A. Kowalski.  Measurers E. C. Beshore,
    E. J. Christensen, G. J. Garradd, A. R. Gibbs, A. D. Grauer, R. E. Hill,
    R. A. Kowalski, S. M. Larson, R. H. McNaught.  1.5-m reflector + CCD.
J95 Great Shefford.  Observer P. Birtwhistle.  0.40-m f/6.0 Schmidt-Cassegrain
    + CCD.

Orbital elements:
2006 VA                                                  Earth MOID = 0.1671 AU
Epoch 2006 Sept. 22.0 TT = JDT 2454000.5                MPC
M  22.06407              (2000.0)            P               Q
n   0.21208363     Peri.    6.18356     +0.58290202     +0.81042224
a   2.7848252      Node   299.48639     -0.74835073     +0.50732727
e   0.5752792      Incl.    3.86403     -0.31653816     +0.29297582
P   4.65           H   18.8           G   0.15           U   9
Residuals in seconds of arc
061101 G96  0.1-  0.3+    061101 G96  0.6-  0.0     061101 G96  0.4-  0.0
061101 G96  0.4+  0.2-    061101 G96  0.1-  0.2+    061101 J95  0.4-  0.2-
061101 G96  0.0   0.8-    061101 G96  0.2-  0.3+    061101 J95  0.5+  0.1-
061101 G96  0.5+  0.2+    061101 G96  0.5+  0.1-    061101 J95  0.1-  0.2+
061101 G96  0.1-  0.1+    061101 G96  0.1+  0.3+

Ephemeris:
2006 VA                  a,e,i = 2.78, 0.58, 4                   q = 1.1828
Date    TT    R. A. (2000) Decl.     Delta      r     Elong.  Phase     V
2006 11 01    02 29.19   +22 49.9    0.966    1.953   171.4     4.4    20.6
2006 11 02    02 27.89   +22 41.7    0.973    1.960   171.9     4.1    20.6
2006 11 03    02 26.62   +22 33.4    0.980    1.967   172.3     3.9    20.6
2006 11 04    02 25.37   +22 25.0    0.987    1.975   172.4     3.8    20.6
2006 11 05    02 24.14   +22 16.7    0.995    1.982   172.3     3.8    20.6
2006 11 06    02 22.94   +22 08.3    1.002    1.989   172.0     4.0    20.7
2006 11 07    02 21.77   +21 59.9    1.011    1.996   171.6     4.2    20.7
2006 11 08    02 20.62   +21 51.6    1.019    2.003   170.9     4.5    20.7
2006 11 09    02 19.51   +21 43.2    1.027    2.011   170.1     4.8    20.8
2006 11 10    02 18.42   +21 35.0    1.036    2.018   169.3     5.2    20.8
2006 11 11    02 17.36   +21 26.7    1.045    2.025   168.3     5.7    20.9
2006 11 12    02 16.34   +21 18.5    1.055    2.032   167.3     6.1    20.9
2006 11 13    02 15.35   +21 10.4    1.064    2.039   166.3     6.6    21.0
2006 11 14    02 14.39   +21 02.4    1.074    2.046   165.2     7.1    21.0
2006 11 15    02 13.47   +20 54.5    1.084    2.054   164.2     7.6    21.1
2006 11 16    02 12.58   +20 46.6    1.094    2.061   163.1     8.0    21.1
2006 11 17    02 11.72   +20 38.9    1.105    2.068   161.9     8.5    21.2
2006 11 18    02 10.91   +20 31.3    1.116    2.075   160.8     9.0    21.2
2006 11 19    02 10.12   +20 23.9    1.127    2.082   159.7     9.5    21.3
2006 11 20    02 09.38   +20 16.5    1.138    2.089   158.6    10.0    21.3
2006 11 21    02 08.67   +20 09.3    1.149    2.096   157.4    10.4    21.4

Timothy B. Spahr             (C) Copyright 2006 MPC           M.P.E.C. 2006-V08

Read MPEC 2006-V07 Read MPEC 2006-V09


MPEC number:

Enter an MPEC number in one of the following forms:

  • 1997-B01 (the full form)
  • J97B01 (the packed version of the full form)
  • B01 (the abbreviated form)

Valid HTML 4.01!